TimeCDT,TemperatureF,Dew PointF,Humidity,Sea Level PressureIn,VisibilityMPH,Wind Direction,Wind SpeedMPH,Gust SpeedMPH,PrecipitationIn,Events,Conditions,WindDirDegrees,DateUTC
12:53 AM,45.0,34.0,65,30.07,10.0,SE,3.5,-,N/A,,Scattered Clouds,130,2013-03-15 05:53:00
1:53 AM,46.0,35.1,66,30.05,10.0,Calm,Calm,-,N/A,,Scattered Clouds,0,2013-03-15 06:53:00
2:53 AM,44.1,35.1,71,30.02,10.0,SSE,5.8,-,N/A,,Scattered Clouds,160,2013-03-15 07:53:00
3:53 AM,44.1,35.1,71,29.99,10.0,SSE,3.5,-,N/A,,Clear,150,2013-03-15 08:53:00
4:53 AM,46.0,36.0,68,29.96,10.0,South,3.5,-,N/A,,Partly Cloudy,180,2013-03-15 09:53:00
5:53 AM,42.1,35.1,76,29.95,10.0,Calm,Calm,-,N/A,,Scattered Clouds,0,2013-03-15 10:53:00
6:53 AM,42.1,35.1,76,29.94,10.0,South,6.9,-,N/A,,Mostly Cloudy,180,2013-03-15 11:53:00
7:53 AM,42.1,36.0,79,29.91,10.0,South,10.4,-,N/A,,Overcast,180,2013-03-15 12:53:00
8:53 AM,48.9,39.0,69,29.89,10.0,South,6.9,-,N/A,,Overcast,180,2013-03-15 13:53:00
9:53 AM,57.0,39.9,53,29.86,10.0,SSW,10.4,-,N/A,,Overcast,200,2013-03-15 14:53:00
10:53 AM,64.0,42.1,45,29.84,10.0,SW,15.0,-,N/A,,Mostly Cloudy,220,2013-03-15 15:53:00
11:53 AM,70.0,42.1,36,29.80,10.0,SW,13.8,-,N/A,,Overcast,220,2013-03-15 16:53:00
12:53 PM,73.9,42.1,32,29.78,10.0,SW,17.3,-,N/A,,Overcast,230,2013-03-15 17:53:00
1:53 PM,79.0,41.0,26,29.74,10.0,WSW,15.0,20.7,N/A,,Overcast,240,2013-03-15 18:53:00
2:53 PM,80.1,41.0,25,29.71,10.0,SW,13.8,-,N/A,,Overcast,230,2013-03-15 19:53:00
3:53 PM,82.0,37.9,21,29.68,10.0,SW,19.6,25.3,N/A,,Mostly Cloudy,220,2013-03-15 20:53:00
4:53 PM,81.0,34.0,18,29.66,10.0,WSW,13.8,20.7,N/A,,Overcast,250,2013-03-15 21:53:00
5:53 PM,79.0,34.0,20,29.64,10.0,WSW,10.4,-,N/A,,Mostly Cloudy,240,2013-03-15 22:53:00
6:53 PM,75.0,44.1,33,29.64,10.0,SSW,16.1,-,N/A,,Mostly Cloudy,210,2013-03-15 23:53:00
7:53 PM,68.0,46.0,45,29.65,10.0,SSW,8.1,-,N/A,,Mostly Cloudy,210,2013-03-16 00:53:00
8:53 PM,68.0,45.0,43,29.65,10.0,West,3.5,-,N/A,,Partly Cloudy,260,2013-03-16 01:53:00
9:53 PM,64.9,45.0,48,29.66,10.0,West,5.8,-,N/A,,Scattered Clouds,280,2013-03-16 02:53:00
10:53 PM,61.0,45.0,56,29.66,10.0,SSW,9.2,-,N/A,,Mostly Cloudy,210,2013-03-16 03:53:00
11:53 PM,57.0,41.0,55,29.69,10.0,North,11.5,-,N/A,,Clear,350,2013-03-16 04:53:00